User: anonymous   Login
Location: Caltech
(34.1382°N, 118.1253°W)
Time: 03:04:45
(UTC-07:00)
Language:

Sapphire - Orbit

View from above orbital plane
View from above orbital plane
View from above satellite
View from above satellite

Ground track
Ground track

The orbit data is extracted from the following two-line orbital elements,

1 26932U 01043D   16273.03107180 -.00000019  00000-0  24565-4 0  9996
2 26932  67.0568  46.9657 0004809 247.9683 112.0908 14.30224998783026
Epoch (UTC): 29 September 2016 00:44:44
Eccentricity: 0.0004809
inclination: 67.0568°
perigee height: 787 km
apogee height: 794 km
right ascension of ascending node: 46.9657°
argument of perigee: 247.9683°
revolutions per day: 14.30224998
mean anomaly at epoch: 112.0908°
orbit number at epoch: 78302

The dashed part of the orbit path shows where the satellite is in the earth's shadow,  

DLR